GFSSW_prec_cloud_105.txt.gz
Cloud_Cover
100 100 100 100 95 99 78 78 58 7 3 7 3 6 12 6 0 0 0 0 0 0 0 0 0 0 0 0 0 0 0 5 100 100 100 100 100 8 5 52 76 99 100 100 100
100 96 39 65 81 78 18 1 0 0 0 2 2 6 19 10 0 0 0 0 0 0 0 0 0 0 0 0 0 0 0 0 71 100 100 100 100 79 1 53 22 25 89 100 100
20 37 91 5 18 14 0 0 0 0 0 11 13 19 13 2 0 0 0 0 0 0 0 0 0 0 0 0 0 0 0 0 2 90 75 100 100 100 5 5 31 36 18 60 100
11 10 7 0 0 0 0 0 0 0 0 0 8 1 0 0 0 0 0 0 0 0 0 0 0 0 0 0 0 0 0 0 0 1 6 100 100 100 100 90 100 100 100 52 100
16 6 0 0 0 0 0 0 0 0 0 0 2 0 0 0 0 0 0 0 0 0 0 0 0 0 0 0 0 0 0 0 0 0 0 77 100 100 100 100 100 100 100 100 99
1 0 0 0 0 0 0 0 0 1 0 0 0 0 0 0 0 0 0 0 0 0 0 0 0 0 0 0 0 0 0 0 0 0 0 0 95 100 100 100 100 100 100 99 100
0 0 0 0 0 0 0 0 0 0 0 0 0 0 0 5 0 0 0 0 0 0 0 0 0 0 0 0 0 0 0 0 0 0 0 0 3 100 100 100 100 100 100 100 100
0 0 5 2 0 0 0 0 0 0 0 0 0 0 0 4 2 0 0 0 0 0 0 0 0 0 0 0 0 0 0 0 0 0 0 0 0 5 100 100 100 98 97 100 100
0 12 12 4 0 0 0 0 0 0 0 0 0 0 0 4 2 3 0 0 0 0 0 0 0 0 0 3 0 4 5 3 0 0 0 0 0 0 9 91 100 91 33 73 100
0 0 1 4 2 0 0 0 4 1 1 3 0 0 0 5 2 5 0 0 0 0 0 0 2 0 78 17 4 3 4 2 0 0 0 0 0 0 0 1 59 18 100 6 93
5 5 5 4 5 1 2 2 5 5 5 29 1 2 0 4 0 0 0 0 0 0 0 0 0 2 1 52 5 79 15 14 0 0 0 0 0 0 0 0 0 34 5 99 13
39 18 5 5 4 2 5 5 86 74 36 12 5 25 4 3 0 0 0 0 0 0 0 0 0 4 21 100 100 100 100 27 66 94 7 12 0 0 0 0 0 0 2 3 99
100 71 5 5 3 1 0 3 5 86 100 5 5 5 6 4 2 0 0 0 0 0 0 0 0 2 7 100 72 98 82 100 100 100 100 100 95 66 1 0 0 0 0 0 10
50 90 5 5 5 5 5 5 16 5 73 5 8 51 97 5 5 0 0 0 0 0 0 0 0 0 5 100 12 25 6 58 71 100 100 100 100 100 87 3 0 0 0 0 0
98 75 18 6 5 5 5 5 5 5 5 76 98 94 100 27 5 4 0 0 0 0 0 0 0 0 3 35 2 36 74 24 66 98 37 80 89 4 3 81 6 0 0 0 0
11 100 44 62 100 100 97 32 6 7 8 34 100 36 89 61 7 5 2 0 0 0 0 0 0 0 0 0 5 5 100 12 5 87 72 100 100 4 86 86 78 2 0 0 0
100 100 91 100 100 100 100 59 36 39 61 26 97 16 31 11 5 5 5 0 0 0 0 0 0 0 0 0 1 0 97 20 9 48 100 100 98 100 100 100 100 84 84 100 30
100 100 100 100 100 100 87 5 11 62 90 92 98 92 86 6 5 5 5 0 0 0 0 0 0 0 0 0 0 0 13 85 100 88 81 100 100 100 100 100 100 100 100 100 100
100 100 100 100 100 100 66 5 6 7 35 5 17 8 34 88 5 20 5 1 3 5 10 0 0 0 0 0 0 0 10 14 99 93 81 100 100 100 100 100 100 97 84 100 100
100 100 100 100 100 100 100 100 58 5 5 72 36 61 10 5 6 5 5 5 10 9 5 0 0 0 0 0 0 0 1 29 7 51 83 100 100 100 100 100 100 100 78 32 68
99 100 100 100 100 100 100 100 78 92 89 19 5 5 58 5 6 8 5 5 7 88 3 0 0 0 0 0 0 0 4 0 5 25 99 98 100 100 100 100 100 100 16 64 1
100 100 100 100 100 100 100 100 100 100 86 34 5 5 5 21 5 5 5 82 57 95 73 3 0 0 0 0 0 0 5 0 0 9 65 98 96 91 100 100 100 100 89 88 71
100 100 100 100 100 100 100 100 100 76 82 20 76 5 5 5 94 7 5 100 79 99 26 10 0 0 0 0 0 0 0 0 0 0 5 8 97 98 84 100 100 100 100 100 100
100 100 100 100 100 100 100 100 100 76 55 92 49 22 53 6 49 100 5 51 100 97 5 5 5 2 0 3 0 0 0 0 0 0 0 2 5 60 88 96 100 100 100 100 100
100 100 100 100 100 100 100 100 100 100 24 77 73 24 63 28 12 5 7 96 100 100 5 5 5 5 5 0 4 5 0 0 0 0 0 0 0 2 17 61 35 100 100 100 100
100 100 100 100 100 100 100 100 100 100 29 21 44 64 23 76 84 6 6 98 98 50 49 5 6 5 5 5 5 8 5 0 0 0 0 0 0 0 0 1 5 5 76 100 100
100 100 100 100 100 100 100 100 100 100 100 10 17 14 18 100 100 100 42 12 25 6 81 28 27 5 5 11 5 5 5 2 0 0 0 0 0 0 0 0 0 0 0 3 78

GFSSW_prec_cloud_108.txt.gz
Cloud_Cover
100 100 100 100 100 100 43 36 11 70 4 6 0 3 18 8 0 0 0 0 0 0 0 0 0 0 0 0 0 0 0 0 0 0 18 5 99 88 5 5 5 48 24 95 100
100 100 100 56 72 99 62 16 4 0 0 0 0 10 19 9 0 0 0 0 0 0 0 0 0 0 0 0 0 0 0 0 0 0 0 0 15 99 29 18 55 29 93 95 100
100 100 76 83 70 4 0 0 0 0 0 0 0 17 0 0 0 0 0 0 0 0 0 0 0 0 0 0 0 0 0 0 0 0 0 0 0 51 100 79 88 50 96 100 100
26 67 6 3 0 0 0 0 0 0 0 0 2 1 0 0 0 0 0 0 0 0 0 0 0 0 0 0 0 0 0 0 0 0 0 0 0 0 16 100 100 50 90 100 100
3 0 0 0 0 0 0 0 0 0 0 0 0 0 0 0 0 0 0 0 0 0 0 0 0 0 0 0 0 0 0 0 0 0 0 0 0 0 1 95 100 100 20 99 100
0 0 0 0 0 0 0 0 0 0 0 0 0 0 0 0 0 0 0 0 0 0 0 0 0 0 0 0 0 0 0 0 0 0 0 0 0 0 1 67 98 100 100 100 100
0 0 0 0 0 0 0 0 0 0 0 0 0 0 0 0 0 0 0 0 0 0 0 0 0 0 0 0 0 0 0 0 0 0 0 0 0 0 0 3 3 100 100 100 100
0 3 5 2 0 0 0 0 0 0 0 0 1 0 0 0 0 0 0 0 0 0 0 0 0 0 0 0 0 0 0 0 0 0 0 0 0 0 0 0 0 5 100 100 100
1 5 5 5 1 0 0 0 0 2 1 0 0 0 5 0 0 0 0 0 0 0 0 0 0 0 4 15 71 10 20 1 0 0 0 0 0 0 0 0 0 0 11 97 74
0 0 0 0 0 0 0 0 4 1 1 0 4 0 4 0 5 0 0 0 0 0 0 0 0 0 2 89 44 90 43 99 100 98 25 0 0 0 0 0 0 0 0 8 91
5 3 0 5 5 0 0 0 3 21 5 2 3 5 5 5 5 5 0 0 0 0 0 0 0 0 6 96 18 99 35 97 77 72 52 64 37 0 0 0 0 0 0 0 5
10 6 5 5 1 0 4 5 4 1 5 2 0 5 5 5 5 5 5 0 0 0 0 0 0 0 0 18 16 61 5 5 12 84 100 98 7 5 5 0 0 0 0 0 0
62 99 5 5 5 5 5 5 5 5 0 5 5 5 5 1 3 5 5 5 0 0 0 0 0 0 0 0 1 0 0 1 42 91 8 43 100 44 5 0 0 0 0 0 0
5 5 13 28 4 4 5 5 5 5 5 0 6 8 5 0 0 5 5 5 2 0 0 0 0 0 0 0 0 0 0 2 3 47 96 86 100 14 0 76 52 0 0 0 0
1 5 5 5 22 4 6 60 78 5 5 14 5 14 5 1 0 0 0 5 5 5 0 0 0 0 0 0 0 0 0 0 0 21 83 85 58 22 3 0 48 100 64 0 0
5 5 7 5 67 40 76 100 86 5 13 71 5 5 5 5 3 0 0 5 5 2 3 0 0 0 0 0 0 0 0 0 0 53 92 100 100 41 100 97 72 41 100 97 93
5 5 100 100 100 100 100 100 99 6 20 26 5 5 5 5 5 3 0 0 5 4 9 1 0 0 0 0 0 0 0 12 5 41 18 100 98 100 100 100 100 100 100 100 100
99 6 49 100 100 100 100 100 100 44 39 86 18 5 22 5 5 5 0 3 5 5 4 1 0 0 0 0 0 0 0 99 51 89 54 100 100 100 100 100 100 95 100 100 100
10 56 96 94 100 100 100 100 100 73 41 96 80 6 66 5 5 1 0 0 5 5 2 5 0 0 0 0 0 0 8 2 73 31 83 36 100 100 100 100 100 100 100 100 100
99 86 100 100 100 100 100 100 100 100 97 81 61 90 6 5 5 5 2 0 0 1 5 1 0 0 1 0 0 0 0 5 4 80 68 26 100 100 100 100 100 100 100 100 100
100 100 99 100 100 100 100 100 100 100 98 79 94 100 76 5 5 5 5 0 0 0 5 1 0 0 0 0 0 0 0 0 0 22 20 94 56 100 100 100 100 100 100 100 100
100 100 100 76 100 100 100 100 100 100 100 100 100 100 22 7 46 5 5 5 5 3 0 3 0 5 0 5 0 0 0 0 0 3 4 30 78 93 95 100 100 100 100 74 94
100 100 100 100 100 100 100 100 100 100 100 100 94 98 21 5 72 44 5 6 5 5 4 2 0 1 0 18 4 0 0 0 0 0 0 0 4 5 82 98 100 85 92 76 30
100 100 100 100 100 100 100 100 100 100 100 99 100 48 23 5 5 44 12 9 53 5 5 5 2 0 5 80 10 0 0 0 3 1 0 0 0 5 5 53 85 100 100 100 99
100 100 100 100 100 100 100 100 100 100 100 100 68 20 87 15 5 6 56 76 72 5 0 5 5 2 10 70 17 5 0 0 1 2 3 0 0 0 0 1 20 100 100 100 100
94 100 100 100 100 100 100 100 100 100 100 100 97 5 84 9 5 60 37 40 46 5 3 5 5 5 8 12 13 5 0 2 4 0 2 3 0 0 0 0 0 4 100 100 100
100 100 100 100 100 99 100 100 100 100 100 100 100 99 21 13 15 84 100 96 29 5 5 5 5 5 5 14 42 9 3 3 5 5 5 5 5 0 0 0 0 0 0 85 100

GFSSW_prec_cloud_111.txt.gz
Cloud_Cover
100 100 100 100 100 99 83 100 80 40 5 2 2 13 5 0 0 0 0 0 0 0 0 0 0 0 0 0 0 0 0 0 0 0 0 1 5 5 5 22 3 5 52 43 38
100 98 55 47 99 99 11 5 4 0 0 0 0 7 2 0 0 0 0 0 0 0 0 0 0 0 0 0 0 0 0 0 0 0 0 0 0 1 4 16 53 33 71 100 98
99 100 100 100 84 6 5 1 0 0 0 0 0 5 0 0 0 0 0 0 0 0 0 0 0 0 0 0 0 0 0 0 0 0 0 0 0 0 0 0 2 18 41 100 100
5 28 5 5 2 0 0 0 0 0 0 0 0 0 0 0 0 0 0 0 0 0 0 0 0 0 0 0 0 0 0 0 0 0 0 0 0 0 0 0 0 0 55 100 100
9 9 1 0 0 0 0 0 0 0 0 0 0 0 0 0 0 0 0 0 0 0 0 0 0 0 0 0 0 0 0 0 0 0 0 0 0 0 0 0 0 0 0 23 100
1 0 0 0 0 0 0 0 0 0 0 0 0 0 0 0 0 0 0 0 0 0 0 0 0 0 0 4 2 0 0 0 0 0 0 0 0 0 0 0 0 0 0 3 94
0 0 0 0 0 0 0 0 0 0 0 0 0 0 0 0 0 5 0 0 0 0 0 0 0 0 0 0 5 3 1 0 0 0 0 0 0 0 0 0 0 0 0 0 8
0 0 0 0 0 0 0 0 0 0 0 0 0 0 0 2 0 0 2 0 0 0 0 0 0 0 0 0 1 15 5 9 89 12 0 0 0 0 0 0 0 0 0 0 1
3 5 5 0 0 0 0 0 0 0 0 0 0 0 3 5 4 0 4 0 0 0 0 0 0 0 0 0 0 5 5 55 23 29 88 43 5 0 0 0 0 0 0 0 0
5 5 0 1 0 0 0 0 0 0 0 0 0 4 0 0 5 0 0 1 0 0 0 0 0 0 0 0 0 0 0 0 23 38 34 96 94 5 0 0 0 0 0 0 0
0 0 0 0 0 0 0 0 0 0 0 1 5 5 0 0 5 5 1 0 0 0 0 0 0 0 0 0 0 0 0 0 0 74 5 5 5 3 0 0 0 0 0 0 0
0 1 0 0 0 0 3 4 0 0 1 4 0 2 0 0 5 5 5 0 0 0 0 0 0 0 0 0 0 0 0 0 0 2 7 8 44 100 100 100 3 0 0 0 0
5 3 1 1 0 0 0 3 5 2 0 5 0 0 0 3 0 0 5 5 0 0 0 0 0 0 0 0 0 0 0 0 0 0 4 87 100 98 5 1 5 4 0 0 0
0 0 0 0 4 3 4 4 5 5 2 6 5 5 4 4 0 0 0 5 2 0 0 5 0 0 0 0 0 0 0 0 0 0 3 83 100 58 4 2 22 1 98 7 0
5 5 4 5 1 4 1 5 5 86 99 5 25 5 0 1 0 0 0 5 2 0 0 0 0 0 0 0 0 0 0 0 0 0 0 95 92 35 5 79 92 93 46 100 0
5 5 5 5 4 5 5 7 26 13 74 31 30 5 0 3 1 0 0 3 5 4 0 0 0 0 5 0 0 0 0 0 0 0 2 99 50 54 79 100 100 100 100 100 73
23 5 5 5 6 60 10 5 5 56 15 39 91 5 5 5 3 0 1 0 5 0 0 0 0 2 5 2 0 0 0 4 1 7 4 9 37 100 100 100 100 100 100 100 99
56 5 5 5 31 100 100 100 100 86 44 93 100 56 17 5 5 0 0 5 5 5 2 0 0 0 5 5 0 0 0 13 9 6 28 5 87 100 100 100 100 100 100 100 100
100 61 5 5 5 13 84 100 100 100 100 83 100 100 83 40 6 4 1 5 5 5 5 1 0 0 5 4 0 0 0 1 10 28 48 15 50 100 100 100 100 100 100 100 100
100 100 100 12 17 44 94 100 100 100 100 100 100 99 99 54 76 5 1 1 5 5 5 5 2 0 5 1 0 0 0 0 2 63 11 4 7 95 100 100 100 100 100 100 100
100 100 100 100 66 46 100 100 100 100 100 100 100 96 40 96 98 5 0 1 5 15 5 23 5 4 2 0 0 0 0 0 0 13 18 4 4 57 95 100 97 87 84 100 100
100 100 100 100 100 100 100 100 100 100 100 100 100 95 86 88 98 7 5 5 5 9 22 74 5 5 0 0 0 0 0 0 0 0 14 23 1 6 76 100 100 99 71 98 100
100 100 100 100 100 100 100 100 100 100 100 100 100 100 87 24 86 38 21 2 5 45 20 21 31 5 1 0 4 0 0 0 0 0 0 0 0 0 4 26 100 100 76 74 100
100 100 100 100 100 100 100 100 100 100 100 100 100 100 95 85 5 87 19 5 5 5 15 21 88 5 5 0 0 0 2 0 0 0 0 0 0 0 0 0 18 100 100 88 100
96 88 100 100 100 100 100 100 100 100 100 100 100 100 100 34 5 7 63 5 5 5 5 5 44 60 5 4 0 0 0 0 0 0 5 2 0 0 0 0 0 12 100 95 99
100 50 100 100 100 100 100 100 100 100 100 100 100 100 100 90 100 10 5 20 5 5 5 5 5 89 5 5 5 5 0 5 0 0 0 0 2 0 0 0 0 0 1 87 100
100 100 100 100 100 100 100 100 100 79 100 100 100 100 100 76 70 83 7 20 5 5 5 5 5 10 60 7 5 8 5 5 5 0 0 0 1 5 0 0 4 0 0 0 5

GFSSW_prec_cloud_114.txt.gz
Cloud_Cover
100 100 95 55 62 80 99 100 100 69 0 0 0 0 0 0 0 0 0 0 0 0 0 0 0 0 0 0 0 0 0 0 0 0 0 0 0 0 0 0 5 52 59 98 100
81 100 100 100 8 78 57 56 52 5 0 0 0 0 0 0 0 0 0 0 0 0 0 0 0 0 0 0 0 0 0 0 0 0 0 0 0 0 0 0 0 0 45 95 100
100 100 100 100 100 67 5 5 3 0 0 0 0 0 0 0 0 0 0 0 0 0 0 0 0 0 0 0 0 0 0 0 0 0 0 0 0 0 0 0 0 0 0 90 100
100 100 100 15 0 5 0 0 0 0 0 0 0 0 0 0 0 0 0 0 0 0 0 0 0 0 0 0 0 0 0 0 0 0 0 0 0 0 0 0 0 0 0 65 100
100 5 5 5 3 0 0 0 0 0 0 0 0 0 0 0 0 0 0 0 0 0 0 0 0 0 0 0 0 0 0 0 0 0 0 0 0 0 0 0 0 0 0 1 94
100 31 5 0 0 0 0 0 0 0 0 0 0 0 0 0 0 0 0 0 0 0 0 0 0 0 0 0 0 0 0 1 3 0 0 0 0 0 0 0 0 0 0 0 1
69 1 0 0 0 0 0 0 0 0 0 0 0 0 0 0 0 0 0 0 0 0 0 0 0 0 0 0 0 0 0 0 5 5 24 0 0 0 0 0 0 0 0 0 0
0 0 0 0 0 0 0 0 0 0 0 0 0 0 0 0 0 0 0 0 0 0 0 0 0 0 0 0 0 0 1 3 2 5 58 77 6 0 0 0 0 0 0 0 0
0 0 0 0 0 0 0 0 0 0 0 0 0 0 0 1 0 0 0 0 0 0 0 0 0 0 0 0 0 0 2 1 3 4 23 82 19 2 2 0 0 0 0 0 0
0 0 0 0 0 0 0 0 0 0 0 0 0 0 3 5 0 2 0 0 0 0 0 0 0 0 0 0 0 0 1 4 5 3 8 23 98 73 46 59 4 0 0 0 0
4 2 0 0 0 0 0 0 0 0 0 0 0 2 5 5 0 0 0 0 0 0 0 0 0 0 0 0 0 0 0 3 2 0 0 5 18 99 42 5 3 3 0 0 0
0 0 0 0 0 0 0 0 0 0 3 5 0 4 4 5 3 0 0 0 0 0 0 0 0 0 0 0 0 0 0 0 1 0 4 5 10 17 5 5 2 1 2 0 0
0 0 0 0 0 0 0 0 0 2 0 1 0 1 5 5 5 5 5 0 0 0 0 0 0 0 0 0 0 0 0 0 0 0 1 5 27 5 36 13 6 15 99 8 0
0 0 0 0 0 0 0 0 0 0 5 16 2 5 5 5 5 5 5 5 0 3 0 0 0 0 0 0 0 0 0 0 0 0 2 4 43 57 15 5 57 94 71 100 12
0 0 0 0 0 0 0 0 0 3 15 5 8 5 5 5 5 3 5 5 5 0 5 0 0 0 0 0 0 0 0 0 0 0 2 0 47 64 20 82 75 99 100 100 76
4 0 0 0 0 0 2 5 3 16 58 65 62 17 5 1 5 4 0 4 5 2 5 0 0 0 0 0 0 0 0 0 0 0 66 13 75 92 99 100 100 100 100 100 100
26 5 0 0 5 5 5 5 5 5 10 72 89 86 18 4 4 5 0 1 5 5 2 5 0 0 0 0 0 0 0 3 2 5 4 4 65 99 100 100 100 100 100 100 100
100 80 5 5 5 5 5 62 100 51 38 92 100 100 100 14 0 5 0 0 0 5 5 5 5 4 0 0 0 0 0 4 45 1 5 4 51 100 98 100 100 100 100 100 100
100 100 100 100 10 5 5 52 72 92 100 86 86 100 100 97 34 0 5 5 5 5 5 5 5 1 0 0 0 0 0 0 39 16 63 11 74 73 94 29 100 100 100 100 100
100 100 100 100 57 7 31 17 34 16 10 52 100 100 100 100 93 95 5 5 5 5 5 5 5 5 0 0 0 0 0 0 2 4 3 5 3 76 62 5 89 96 100 100 100
100 100 100 100 100 100 100 26 82 46 56 100 100 100 100 100 100 100 7 10 5 5 5 5 5 3 4 1 0 0 0 0 1 1 2 3 0 5 92 56 5 60 100 100 100
100 100 100 100 100 100 100 100 82 78 91 100 100 100 100 100 100 100 88 4 5 5 5 7 5 5 5 5 2 0 0 0 0 0 1 0 1 0 9 77 5 39 98 100 100
100 100 100 100 100 100 100 100 100 100 100 100 100 100 100 100 100 98 20 7 5 5 5 5 5 5 1 4 5 1 0 0 0 0 0 0 0 0 0 0 51 8 59 100 100
93 100 100 100 100 100 100 100 100 100 100 100 100 100 100 100 100 100 100 5 5 15 5 5 5 5 5 1 5 5 0 0 0 0 0 0 0 0 0 0 15 69 77 100 100
99 100 100 100 100 100 100 100 100 100 100 100 100 100 100 100 100 100 100 24 46 99 30 9 45 48 5 5 0 5 1 0 0 0 0 0 0 0 0 0 0 2 58 59 99
100 96 99 100 100 100 100 100 100 100 100 100 100 100 100 100 100 100 92 96 33 25 61 13 5 99 53 20 5 0 5 0 0 0 0 4 0 0 0 0 0 0 0 18 4
100 100 100 100 100 100 100 100 100 100 100 100 100 100 100 100 100 100 84 100 40 18 100 43 90 94 97 64 5 1 5 5 0 4 0 5 3 0 4 5 3 0 0 0 0

GFSSW_prec_cloud_117.txt.gz
Cloud_Cover
100 100 95 100 52 1 6 3 54 100 96 96 5 1 0 0 0 0 0 0 0 0 0 0 0 0 0 0 0 0 0 0 0 0 0 4 1 1 2 0 3 0 0 60 100
96 100 71 23 100 100 99 18 22 5 5 5 1 0 0 0 0 0 0 0 0 0 0 0 0 0 0 0 0 0 0 0 0 0 0 0 0 3 11 4 0 0 0 0 17
7 100 78 95 100 100 100 100 39 5 0 0 0 0 0 0 0 0 0 0 0 0 0 0 0 0 0 0 0 0 0 0 0 0 0 0 0 0 0 0 0 20 20 8 0
100 100 100 100 100 100 73 40 0 0 0 0 0 0 0 0 0 0 0 0 0 0 0 0 0 0 0 0 0 0 0 0 0 0 0 0 0 0 0 0 0 0 0 0 0
100 100 100 100 90 5 3 0 0 0 0 0 0 0 0 0 0 0 0 0 0 0 0 0 0 0 0 0 0 0 0 0 0 0 1 0 0 0 0 0 0 0 0 0 0
100 100 100 6 4 0 0 0 0 0 0 0 0 11 0 0 0 0 0 0 0 0 0 0 0 0 0 0 0 0 0 0 0 0 6 86 0 0 0 0 0 0 0 0 0
79 100 100 5 0 0 0 0 0 0 0 0 0 0 0 0 0 0 0 0 0 0 0 0 0 0 0 0 0 0 0 3 0 0 0 80 10 3 0 0 0 0 0 0 0
90 12 5 0 0 0 0 0 0 0 0 0 0 0 0 0 0 0 0 0 0 0 0 0 0 0 0 0 0 0 11 38 30 0 4 3 11 13 58 60 0 0 0 0 0
34 4 0 0 0 0 0 0 0 0 0 0 0 0 0 0 0 0 0 0 0 0 0 0 0 0 0 0 51 43 5 5 19 5 9 42 5 7 60 74 6 7 2 0 0
3 0 0 0 0 0 0 0 0 0 0 0 0 0 0 0 0 0 0 0 0 0 0 0 0 0 0 0 0 0 2 5 5 2 0 5 5 46 19 13 11 14 2 1 2
0 0 0 0 0 0 0 0 0 0 0 0 0 0 0 0 0 0 0 0 0 0 0 0 0 0 0 0 0 0 2 6 6 0 2 5 5 4 11 17 46 100 75 1 5
0 0 0 0 0 0 0 0 0 0 0 0 0 0 0 1 2 0 0 0 0 2 0 0 0 0 0 0 0 0 1 3 3 3 1 5 50 46 84 93 100 55 87 96 1
0 0 0 0 0 0 0 0 0 0 0 0 0 0 2 4 5 5 2 0 0 0 0 0 0 0 0 0 0 0 0 0 0 0 10 0 99 100 71 46 83 58 99 78 99
0 0 0 0 0 0 0 0 0 0 0 0 0 4 4 0 5 5 5 0 0 0 0 0 0 0 0 0 0 0 0 0 0 1 55 50 53 100 4 9 72 100 84 100 75
9 0 3 1 0 0 0 0 0 0 0 0 2 68 5 4 3 5 5 2 0 0 0 0 0 0 0 0 0 0 0 0 0 0 59 41 82 96 5 10 88 100 100 100 100
100 21 5 4 0 0 0 0 0 0 0 2 5 10 21 5 5 5 5 5 0 0 0 0 0 0 0 0 0 0 0 0 0 2 99 22 68 96 16 100 100 96 100 100 100
100 100 13 5 0 1 0 0 0 0 0 3 5 14 82 68 8 5 4 5 0 0 0 0 0 0 0 0 0 0 0 3 22 5 56 7 99 48 44 100 100 100 100 100 100
100 100 100 75 5 5 0 0 1 4 5 5 5 46 96 100 84 93 13 4 5 0 0 2 5 0 0 0 0 0 0 4 81 2 3 5 13 25 20 100 100 100 100 100 100
100 100 100 100 99 12 5 5 5 5 55 100 38 33 26 100 100 19 36 88 4 5 0 2 5 0 4 0 0 0 0 0 24 7 61 18 3 87 69 50 30 98 100 100 100
100 100 100 100 94 65 81 5 5 5 5 95 26 51 81 98 100 100 100 100 68 5 2 5 5 1 1 0 0 0 0 0 16 48 32 68 0 4 5 4 9 81 100 100 100
100 100 100 100 100 95 100 91 79 26 13 66 68 81 74 100 100 100 100 100 48 5 5 5 5 5 5 5 1 0 0 0 2 0 5 28 1 0 4 5 5 60 100 100 100
100 100 100 100 100 100 100 100 100 82 38 23 22 65 95 100 100 100 100 100 100 9 6 51 15 8 5 5 5 0 0 0 0 0 5 2 11 0 0 5 5 100 48 100 100
100 100 100 100 100 100 100 100 100 100 100 100 97 66 33 100 100 100 100 100 100 97 5 89 77 62 5 5 5 5 1 0 0 0 3 0 0 0 0 5 5 37 100 100 100
100 98 100 100 86 100 100 100 100 100 100 100 100 82 92 100 100 100 100 100 100 100 28 81 55 71 56 15 5 34 5 0 0 0 0 0 0 0 0 0 0 2 69 93 100
100 91 99 100 100 100 100 100 100 100 100 100 100 100 100 100 100 100 100 100 100 100 52 69 63 99 34 25 5 5 5 5 0 0 0 0 0 0 0 0 0 0 0 0 18
100 100 100 100 100 100 100 100 100 100 100 100 100 100 100 100 100 100 100 100 100 100 40 44 42 96 94 7 8 5 5 36 5 5 0 5 0 0 0 0 0 0 0 0 0
100 100 100 100 100 100 100 100 100 100 100 100 100 100 100 100 100 100 100 100 100 100 100 60 10 5 56 35 6 5 5 8 11 3 4 1 5 2 5 0 0 1 0 0 0

GFSSW_prec_cloud_120.txt.gz
Cloud_Cover
88 100 100 87 96 19 3 16 0 0 4 81 100 100 100 38 1 0 0 0 0 0 0 0 0 0 0 0 0 0 0 0 0 0 0 0 0 0 1 0 1 1 91 76 100
74 97 100 100 97 100 100 97 5 5 2 7 65 7 1 0 0 0 0 0 0 0 0 0 0 0 0 0 0 0 0 0 0 0 0 0 0 0 1 3 4 0 22 9 100
100 100 99 100 60 100 16 98 100 93 98 44 5 0 0 0 0 0 0 0 0 0 0 0 0 0 0 0 0 0 0 0 0 0 0 0 0 0 0 0 0 0 5 94 30
100 100 77 100 96 74 54 100 90 17 22 5 0 0 0 0 0 0 0 0 0 0 0 0 0 0 0 0 0 0 0 0 0 0 0 0 1 0 0 0 0 0 3 5 80
100 36 81 100 100 100 100 95 17 62 2 0 0 0 0 0 0 0 0 0 0 0 0 0 0 0 0 0 0 0 0 0 0 0 0 0 21 0 0 0 0 0 0 0 2
95 100 100 100 100 100 97 5 17 1 0 0 0 0 0 0 0 0 0 0 0 0 0 0 0 0 0 0 0 0 0 0 0 0 0 0 32 23 23 0 0 0 0 0 0
100 100 100 100 99 96 5 4 0 0 0 0 0 0 0 0 0 0 0 0 0 0 0 0 0 0 0 0 0 0 0 7 5 3 0 0 25 7 7 81 7 0 0 0 0
100 100 100 92 100 96 1 0 0 0 0 0 0 0 0 0 0 0 0 0 0 0 0 0 0 0 0 0 0 1 7 79 70 1 0 0 1 9 46 69 41 60 1 0 0
1 33 95 6 42 37 0 0 0 0 0 0 0 0 0 0 0 0 0 0 0 0 0 0 0 0 0 0 2 58 3 0 5 53 1 0 2 60 18 38 53 5 5 3 0
9 71 5 5 4 0 0 0 0 0 1 0 0 0 0 0 0 0 0 0 0 0 0 0 0 0 0 0 0 0 0 0 64 5 0 3 5 5 4 2 7 4 5 5 5
25 5 5 2 0 0 0 0 0 0 0 0 0 0 0 0 0 0 0 0 0 0 0 0 0 0 0 0 0 0 0 5 3 0 0 5 44 5 59 5 5 5 2 5 5
0 5 0 0 0 0 0 0 0 0 0 0 0 0 0 0 0 0 0 0 0 0 0 0 0 0 0 0 0 0 0 0 0 5 4 4 87 79 27 5 3 1 5 5 5
4 0 0 0 0 0 0 0 0 0 0 0 0 0 0 0 0 0 0 0 0 0 0 0 0 0 0 0 0 0 0 0 0 0 23 33 75 96 59 68 1 1 68 6 5
62 1 0 0 0 0 0 0 0 0 0 0 0 0 0 0 0 0 3 2 0 0 0 0 0 0 0 0 0 0 0 0 0 0 31 42 26 75 48 5 5 35 15 26 4
100 100 2 0 0 0 0 0 0 0 0 0 0 0 0 4 4 1 0 5 0 0 0 0 0 0 0 0 0 0 0 0 0 5 64 5 4 90 6 5 64 100 100 100 100
100 100 100 5 3 3 0 0 0 0 0 0 0 0 5 5 5 8 5 5 5 0 0 0 0 0 0 0 0 0 0 0 0 2 59 0 5 5 5 46 16 42 100 100 100
100 100 100 100 8 5 5 3 0 0 0 0 0 4 5 14 49 58 29 46 5 3 1 0 0 0 0 0 0 0 0 3 2 0 36 0 3 5 5 17 73 100 100 100 100
82 99 100 100 100 6 5 5 15 0 0 0 0 0 1 42 100 100 92 41 5 23 92 4 1 0 0 0 0 0 0 0 30 5 1 0 0 5 4 67 62 60 100 100 100
100 52 95 100 100 100 5 21 18 9 6 0 0 0 6 30 45 100 100 100 100 100 100 5 0 0 0 1 0 0 0 0 12 3 12 31 1 0 3 1 95 60 100 100 100
73 81 90 98 100 100 100 98 5 24 5 9 1 6 81 32 65 95 100 100 100 100 100 67 3 5 5 4 0 0 0 0 2 22 3 93 4 0 0 3 5 100 95 100 100
100 92 100 100 100 100 100 100 5 49 7 30 12 5 63 14 31 48 100 100 100 100 100 100 34 5 5 5 0 0 0 0 0 3 3 2 6 0 0 5 5 7 97 100 100
100 98 100 100 86 94 100 100 99 28 12 61 23 58 91 5 6 64 82 98 100 100 100 100 100 5 5 5 2 5 1 0 0 0 0 0 4 0 0 0 5 99 100 59 100
100 100 100 100 27 54 100 100 100 100 20 89 78 11 11 18 31 55 100 99 100 100 100 100 63 9 5 5 5 1 5 0 0 0 0 0 0 0 0 0 0 2 97 100 89
100 100 100 100 100 100 100 100 100 100 100 58 99 100 100 100 100 100 90 100 100 100 100 100 81 11 79 100 5 0 5 5 0 0 0 0 0 0 0 0 0 0 1 100 100
100 100 100 100 100 100 100 100 100 100 100 100 100 100 100 100 92 32 18 99 100 100 100 100 97 59 66 42 18 4 4 5 4 0 0 0 0 0 0 0 0 0 0 12 7
100 100 100 100 100 100 100 100 100 100 100 100 100 100 100 100 100 100 100 100 100 100 100 100 85 5 14 100 22 5 5 6 14 2 3 4 0 0 0 0 0 0 0 0 0
100 100 100 100 100 100 100 100 100 100 100 100 100 100 100 100 100 100 100 100 100 100 100 100 100 30 15 18 91 13 5 5 5 5 5 4 0 0 4 5 1 0 0 0 0